Temperature
17 17 17 17 17 17 17 17 17 17 16 16 16 16 16 16 16 16 16 16 15 16 16 15 16 16 15 15 15 15 15 15 15 15 15 15 15 15 15 15 15 15 15
18 17 17 17 17 17 17 17 17 16 16 16 16 16 16 16 16 16 15 15 15 16 15 15 16 16 15 15 15 16 16 16 16 15 15 15 15 15 15 15 15 15 15
18 17 16 16 17 16 17 16 16 16 16 16 16 16 16 16 16 16 15 15 16 16 16 15 15 16 16 16 16 16 16 16 16 16 16 16 15 15 15 15 15 15 15
17 17 16 16 16 16 16 16 16 16 16 16 16 16 16 16 16 16 16 16 16 16 16 16 16 16 16 16 16 16 16 16 16 16 16 16 16 16 16 16 16 16 16
17 17 16 16 16 16 16 16 16 16 16 16 16 16 16 16 16 16 16 16 16 16 16 16 16 16 16 16 16 16 16 16 16 16 16 16 16 16 16 16 16 16 16
17 16 16 16 16 16 16 16 16 16 16 16 16 16 16 16 16 16 16 16 16 16 16 16 16 16 16 16 16 16 16 16 16 16 16 16 16 16 16 16 16 16 16
16 16 16 16 16 16 16 16 16 16 16 16 16 16 16 16 16 16 16 16 16 16 16 16 16 16 16 16 16 16 16 16 16 16 16 16 16 16 16 16 16 16 15
16 16 16 16 16 16 16 16 16 16 16 16 16 16 16 16 16 16 16 16 16 16 16 16 16 16 16 16 16 16 16 16 16 16 16 16 16 16 15 15 15 15 15
16 16 16 16 16 16 16 16 16 16 16 16 16 16 16 16 16 16 16 16 16 16 16 16 16 16 16 16 16 16 16 16 16 16 16 16 16 15 15 15 15 15 15
16 16 16 15 15 15 16 16 16 16 16 16 16 16 16 16 16 16 16 16 16 16 16 16 16 16 16 16 16 16 16 16 16 16 16 15 15 15 15 15 15 15 15
15 15 15 15 15 15 15 15 16 16 16 16 16 16 16 16 16 16 16 16 16 16 16 16 16 16 16 16 16 16 16 16 16 15 15 15 15 15 15 15 14 14 14
15 15 15 15 15 15 15 15 15 15 15 16 16 16 16 16 16 16 16 16 16 16 16 16 16 16 16 16 15 15 15 15 15 15 15 15 15 15 14 14 14 14 14
15 15 15 15 15 15 15 15 15 15 15 15 16 16 16 16 16 16 16 16 16 16 16 16 16 16 15 15 15 15 15 15 15 15 15 15 14 14 14 14 14 14 14
15 15 15 15 15 15 15 15 15 15 15 15 15 16 16 16 16 16 16 16 16 16 16 16 15 15 15 15 15 15 15 15 15 15 14 14 14 14 14 14 14 14 13
15 15 15 15 15 15 15 15 15 15 15 15 15 15 16 16 16 16 16 16 16 16 16 15 15 15 15 15 15 15 15 15 14 14 14 14 14 14 14 13 13 13 13
15 15 15 15 15 15 15 15 15 15 15 15 15 15 15 16 16 16 16 16 16 15 15 15 15 15 15 15 15 14 14 14 14 14 14 14 14 14 13 13 13 13 13
15 15 15 15 15 15 15 15 15 15 15 15 15 15 15 15 15 15 16 16 15 15 15 15 15 15 15 14 14 14 14 14 14 14 14 14 14 13 13 13 13 13 12
15 15 15 15 15 15 15 15 15 15 15 15 15 15 15 15 15 15 15 15 15 15 15 15 14 14 14 14 14 14 14 14 14 14 14 14 13 13 13 13 12 12 12
14 14 14 15 15 15 15 15 15 15 15 15 15 15 15 15 15 15 15 15 15 15 14 14 14 14 14 14 14 14 14 14 14 14 14 14 13 13 13 13 12 12 12
14 14 14 14 15 14 14 14 15 15 15 15 14 15 15 15 15 15 15 14 14 14 14 14 14 14 13 13 13 13 13 13 14 14 14 14 14 13 13 13 12 12 12
14 14 14 15 15 14 14 14 14 14 15 14 14 14 14 14 14 14 14 14 14 14 14 13 13 13 13 13 13 13 13 13 14 14 14 14 14 13 13 13 12 12 12
14 14 14 14 14 14 14 14 15 14 15 15 14 14 14 14 14 14 14 14 14 14 13 13 13 13 13 13 12 12 12 13 14 14 13 13 13 13 13 12 12 12 12
14 14 14 14 14 14 14 14 14 14 14 14 14 14 14 14 14 14 14 14 14 13 13 13 13 13 13 13 12 12 12 12 12 12 13 13 12 12 12 12 12 11 11
14 14 14 14 14 14 14 14 14 14 14 14 14 14 14 14 14 14 14 13 13 13 13 13 13 13 12 12 12 12 12 11 11 11 12 12 12 12 11 11 11 11 11
14 14 14 14 14 14 14 14 14 14 14 14 14 14 14 13 13 13 13 13 13 13 13 13 13 13 12 12 12 12 12 11 11 11 11 11 11 11 11 11 11 11 10
13 14 14 14 13 13 13 13 13 13 13 13 13 13 13 13 13 13 13 13 13 13 13 13 12 12 12 12 12 12 11 11 11 10 10 10 10 10 10 10 10 10 10
Wind_Speed
10 16 24 23 22 21 20 20 19 18 18 19 19 19 20 20 20 20 19 20 20 20 20 21 21 20 20 20 19 19 19 19 19 19 18 18 18 18 18 18 17 16 18
15 20 25 24 23 22 20 20 19 18 18 19 19 19 19 20 20 20 20 20 20 20 21 21 21 20 20 20 19 19 18 18 18 18 17 17 17 17 18 17 16 15 17
18 21 24 24 23 22 21 20 19 19 18 19 19 19 20 20 20 20 20 20 20 20 21 20 20 19 19 19 18 18 17 17 16 16 15 14 15 16 17 17 16 16 16
18 20 22 25 24 23 21 20 19 19 18 18 19 19 19 20 20 20 19 20 20 20 20 20 19 18 17 17 17 16 16 15 15 14 13 12 13 15 15 16 16 16 16
16 19 22 25 24 23 22 21 20 19 18 18 18 18 19 19 19 20 20 20 20 20 19 19 17 17 16 16 16 15 15 15 14 14 13 12 12 14 14 15 15 15 15
15 18 23 25 24 23 22 21 20 19 19 19 18 18 19 19 19 20 20 19 19 19 18 17 17 16 16 15 15 15 14 14 14 13 11 11 11 13 13 13 13 13 14
16 16 22 25 24 23 22 21 20 20 19 19 19 19 19 19 20 20 19 19 19 18 17 17 16 16 15 14 14 14 13 13 12 11 9 9 10 12 12 12 12 12 12
16 15 20 24 24 23 21 20 20 20 19 19 19 19 20 20 20 19 19 18 18 17 17 16 15 15 14 14 13 13 12 11 9 9 8 7 9 10 11 11 11 11 11
14 13 14 19 22 22 21 20 19 19 19 19 19 18 19 19 19 19 18 18 17 16 16 15 14 14 13 13 12 11 10 10 8 7 6 6 7 8 9 9 9 9 9
12 12 11 14 17 17 18 19 18 18 18 18 18 18 19 19 18 17 16 16 16 15 14 14 13 12 12 11 10 10 10 8 7 5 4 4 5 6 6 7 7 7 7
13 11 11 11 13 15 15 17 17 17 17 17 17 18 17 15 15 14 15 15 14 14 13 12 11 11 10 10 10 9 8 7 5 4 3 3 4 4 5 5 5 5 5
16 13 11 11 12 13 13 13 14 14 14 14 15 15 13 13 13 13 14 13 13 12 11 11 10 9 9 8 7 7 6 5 4 3 3 4 4 3 3 3 3 3 3
16 14 12 12 12 11 9 11 10 11 11 12 14 14 13 12 11 11 10 10 10 10 8 8 7 7 6 5 4 4 4 4 3 3 4 5 5 4 4 3 3 3 3
15 14 12 11 11 10 10 9 9 9 9 10 12 14 12 9 8 8 8 8 8 7 7 6 6 5 4 4 3 3 3 3 4 5 6 6 6 6 6 5 4 4 4
14 15 14 12 12 10 10 9 9 9 9 11 12 13 13 9 7 7 7 7 7 7 7 5 5 4 3 2 2 3 3 4 5 6 7 7 8 8 8 7 6 6 6
13 14 13 13 12 10 9 8 8 10 11 12 12 13 14 12 9 7 6 6 6 7 7 6 5 3 2 2 2 3 4 5 6 7 8 8 9 10 10 9 9 8 8
12 12 13 13 12 12 11 10 9 10 11 10 11 14 14 13 12 9 6 5 7 8 7 5 4 2 2 2 2 3 4 6 7 8 8 9 10 10 11 11 10 9 9
9 11 12 12 13 13 11 10 9 10 11 10 12 13 15 14 13 10 6 6 9 8 6 4 3 2 2 2 2 2 3 4 6 8 9 9 9 10 10 11 11 10 10
8 10 11 11 12 12 11 9 8 9 9 10 11 12 14 14 14 11 7 7 9 7 4 4 3 3 3 3 3 3 3 3 5 6 6 8 9 10 10 10 10 11 11
7 8 10 10 11 10 9 7 6 7 7 8 9 11 13 13 14 12 8 8 8 5 4 4 4 3 3 3 2 3 3 4 3 4 5 6 7 8 9 9 8 9 9
6 7 9 10 9 9 8 8 8 8 7 7 7 10 13 13 13 11 7 7 7 6 6 6 4 3 3 2 1 2 3 3 3 3 3 3 3 5 5 6 6 6 7
7 7 8 8 8 9 8 7 5 6 6 7 6 8 12 12 13 11 8 7 7 6 6 6 5 3 3 3 3 1 3 4 2 1 1 1 1 1 1 3 4 4 5
6 8 8 8 8 8 7 5 4 4 3 4 5 6 7 10 11 10 9 6 6 6 7 6 6 6 4 3 3 3 2 3 3 2 1 1 1 1 1 1 2 2 3
4 4 5 6 7 7 8 8 9 8 7 6 6 5 5 7 8 9 9 8 7 6 6 6 6 5 4 4 3 3 3 3 2 3 2 1 0 0 1 1 1 2 2
1 2 4 5 5 5 7 8 8 6 5 4 5 6 6 5 7 8 9 8 7 6 6 6 6 6 5 4 4 3 3 3 4 4 4 3 1 1 1 1 1 2 2
1 1 2 3 3 4 5 6 7 8 7 6 7 7 7 5 5 6 7 7 6 6 6 6 6 6 6 5 4 4 3 3 3 4 5 4 4 2 1 1 1 2 2
Wind_Direction
160 157 154 150 145 141 137 133 130 129 128 128 129 129 129 128 126 125 123 120 118 116 114 111 110 107 103 99 95 92 89 86 83 81 79 77 77 77 76 74 70 68 69
151 155 153 150 147 143 139 135 133 132 131 130 131 131 130 129 128 127 124 123 120 118 116 113 111 108 104 101 98 96 93 90 86 83 79 77 78 77 76 75 73 71 69
148 152 152 150 147 144 140 136 135 134 133 132 132 132 132 131 130 128 126 125 122 119 116 114 112 110 107 105 102 98 96 92 87 83 78 76 80 79 78 76 74 72 71
147 150 152 150 148 145 142 139 138 137 136 135 134 134 135 133 132 129 128 126 123 120 117 114 112 112 111 109 106 101 98 94 88 83 75 72 78 80 78 76 75 73 71
145 149 152 150 148 146 144 142 140 140 139 139 137 135 135 134 132 130 128 126 124 120 118 116 115 114 114 113 108 104 101 96 90 85 79 75 78 81 79 77 76 75 74
144 148 152 150 149 147 146 145 143 142 141 139 137 136 136 135 132 130 128 126 124 122 120 118 117 116 114 113 110 107 104 100 94 88 83 80 83 85 83 82 81 79 76
146 148 153 151 150 149 148 147 145 144 141 141 139 139 138 136 133 130 130 130 128 126 123 121 120 118 116 115 114 112 110 105 100 92 85 85 90 89 87 85 83 80 77
147 149 154 153 151 150 150 149 148 145 144 143 142 140 138 136 135 134 134 135 134 131 126 124 122 121 118 117 117 117 117 111 104 94 88 88 95 93 90 87 85 82 80
147 150 150 153 152 151 151 151 150 148 146 145 143 141 139 138 139 139 139 139 137 134 130 127 126 123 120 119 120 120 119 116 109 101 96 98 103 100 97 94 90 86 83
150 152 149 150 151 151 151 152 151 149 148 145 142 138 138 140 141 141 141 141 139 136 132 130 129 126 123 122 122 123 122 121 116 112 110 118 117 112 107 103 97 93 90
157 157 153 150 149 148 151 154 151 150 148 144 140 139 137 138 139 140 142 142 140 139 136 134 131 127 123 122 123 125 126 125 129 137 152 153 142 132 124 118 111 104 98
166 165 159 155 152 150 154 151 149 148 145 141 143 141 139 138 139 142 144 145 144 142 139 135 131 125 120 119 120 123 130 141 149 173 199 193 182 170 156 148 140 131 119
167 168 165 161 157 155 152 151 149 147 146 144 146 145 144 140 140 143 145 146 146 143 137 133 125 126 126 128 128 131 145 163 187 213 225 221 216 208 200 193 186 182 177
168 170 169 165 163 160 156 157 154 154 156 157 157 154 151 149 149 153 155 157 155 153 146 142 140 140 138 142 151 162 179 196 220 234 240 236 233 229 226 225 218 217 216
175 174 172 170 168 164 159 162 163 165 167 167 166 166 163 162 162 165 166 168 168 165 162 159 155 154 153 160 179 190 213 229 237 241 245 245 243 240 239 240 238 236 232
180 176 172 174 174 168 167 168 169 172 172 172 175 177 174 172 172 171 172 176 180 180 177 174 171 169 177 187 218 222 228 237 241 243 246 250 250 248 248 249 250 249 244
184 178 177 175 178 175 173 174 176 176 175 179 183 183 182 180 179 176 175 183 191 188 181 174 172 171 189 208 235 240 238 241 245 247 250 252 255 255 251 252 253 252 253
184 181 184 182 180 182 181 177 179 179 179 183 185 187 188 188 185 180 181 190 191 184 179 171 168 179 207 218 240 251 244 247 250 251 251 251 252 254 254 252 253 257 260
192 186 188 186 182 186 183 178 179 179 182 183 185 188 191 190 188 185 189 192 185 178 178 177 174 177 201 222 237 249 248 242 247 252 250 250 249 250 252 256 257 256 259
199 193 192 188 184 183 182 176 174 178 182 180 184 190 189 192 190 188 190 187 179 174 181 181 183 184 193 205 233 261 262 255 248 246 249 251 250 250 249 251 256 259 258
204 200 197 193 188 182 185 184 185 188 185 183 186 189 191 193 191 189 191 183 181 188 191 184 175 182 195 164 155 300 294 265 256 256 251 245 247 247 242 245 250 255 263
207 205 202 201 192 191 195 189 186 178 182 186 185 189 191 190 189 191 187 190 187 188 187 185 177 169 179 166 160 159 314 325 323 293 293 252 259 246 242 255 253 251 258
205 205 206 205 199 198 194 181 169 155 151 174 189 195 191 187 187 187 186 184 186 189 194 192 185 179 186 191 180 168 191 251 300 309 327 346 351 360 317 289 270 265 259
222 195 192 199 202 202 195 189 188 192 192 196 190 190 183 185 189 188 184 183 185 190 189 188 185 185 177 193 202 211 209 187 219 292 299 306 5 312 311 319 305 294 284
226 184 173 181 194 198 196 190 189 194 197 181 170 179 187 185 187 190 189 186 186 188 191 186 185 188 192 193 188 184 208 218 215 233 271 279 284 243 235 254 271 285 295
30 82 137 154 183 185 186 185 185 190 189 176 181 191 193 189 194 195 189 188 186 185 188 190 189 191 197 196 193 187 187 196 205 216 244 257 265 255 226 219 235 271 281
Height
1498 1503 1506 1510 1513 1516 1518 1520 1522 1524 1525 1527 1529 1531 1534 1536 1538 1540 1542 1543 1545 1547 1548 1549 1551 1552 1553 1554 1554 1555 1556 1556 1557 1557 1557 1558 1558 1558 1558 1558 1559 1559 1559
1495 1501 1505 1509 1512 1515 1518 1520 1522 1524 1526 1528 1530 1532 1534 1536 1539 1541 1543 1545 1546 1548 1549 1551 1552 1554 1554 1556 1557 1557 1558 1559 1559 1559 1560 1560 1560 1561 1561 1561 1561 1561 1561
1494 1500 1505 1508 1512 1515 1517 1520 1522 1524 1526 1528 1530 1533 1535 1537 1540 1542 1544 1546 1548 1549 1551 1553 1554 1555 1556 1557 1559 1560 1560 1561 1561 1562 1562 1562 1562 1563 1563 1563 1563 1563 1563
1494 1499 1504 1508 1512 1515 1517 1520 1522 1525 1527 1529 1532 1534 1536 1538 1541 1543 1545 1547 1549 1551 1552 1554 1556 1557 1558 1560 1561 1562 1562 1563 1563 1564 1564 1564 1564 1565 1565 1565 1565 1564 1564
1495 1499 1504 1508 1511 1514 1517 1520 1523 1525 1527 1530 1532 1535 1537 1539 1542 1544 1546 1548 1550 1552 1554 1556 1557 1559 1560 1562 1563 1564 1564 1565 1565 1566 1566 1566 1566 1567 1566 1566 1566 1566 1566
1494 1499 1504 1508 1511 1514 1517 1520 1523 1526 1528 1531 1533 1536 1538 1540 1542 1545 1547 1549 1551 1553 1555 1557 1559 1561 1562 1563 1564 1565 1566 1567 1567 1568 1568 1568 1568 1568 1568 1568 1568 1568 1568
1494 1500 1504 1508 1511 1514 1518 1520 1523 1526 1529 1531 1534 1536 1539 1541 1544 1546 1548 1551 1553 1555 1557 1559 1561 1562 1564 1565 1566 1567 1568 1568 1569 1569 1570 1570 1570 1570 1570 1570 1570 1569 1569
1494 1500 1504 1508 1512 1515 1518 1521 1524 1526 1529 1532 1535 1537 1540 1542 1545 1547 1549 1552 1554 1556 1558 1560 1562 1564 1565 1566 1567 1568 1569 1570 1570 1571 1571 1571 1571 1571 1571 1571 1571 1571 1570
1496 1500 1504 1508 1512 1515 1518 1521 1524 1527 1530 1533 1535 1538 1540 1543 1546 1548 1550 1553 1555 1557 1559 1561 1563 1565 1566 1567 1569 1569 1570 1571 1572 1572 1572 1572 1573 1573 1572 1572 1572 1572 1572
1496 1500 1504 1508 1511 1515 1518 1521 1524 1527 1530 1533 1536 1538 1541 1544 1546 1549 1551 1554 1556 1558 1560 1562 1564 1565 1567 1568 1569 1570 1571 1572 1572 1573 1573 1573 1573 1573 1573 1573 1573 1573 1572
1496 1500 1504 1507 1511 1515 1518 1521 1524 1528 1530 1533 1536 1539 1541 1544 1546 1549 1552 1554 1556 1558 1560 1562 1564 1566 1567 1569 1570 1571 1572 1572 1573 1573 1574 1574 1574 1574 1574 1574 1574 1573 1573
1494 1498 1502 1506 1510 1514 1517 1521 1524 1527 1530 1533 1535 1538 1541 1544 1546 1549 1552 1554 1557 1559 1561 1562 1564 1566 1567 1569 1570 1571 1572 1573 1573 1574 1574 1574 1574 1574 1574 1574 1574 1573 1573
1492 1497 1501 1505 1509 1513 1516 1520 1523 1526 1529 1532 1535 1538 1540 1543 1546 1549 1551 1554 1556 1558 1560 1562 1564 1566 1567 1569 1570 1571 1572 1573 1573 1573 1574 1574 1574 1574 1574 1574 1573 1573 1573
1491 1496 1500 1504 1508 1512 1515 1518 1522 1525 1528 1531 1534 1537 1540 1542 1545 1548 1551 1553 1556 1558 1560 1562 1564 1565 1567 1568 1569 1570 1571 1572 1572 1573 1573 1573 1573 1573 1573 1573 1573 1572 1572
1490 1495 1499 1503 1507 1511 1514 1517 1521 1524 1527 1530 1533 1536 1539 1542 1544 1547 1550 1552 1555 1557 1559 1561 1563 1565 1566 1567 1569 1569 1570 1571 1571 1572 1572 1572 1572 1572 1572 1572 1572 1571 1571
1489 1493 1497 1501 1505 1509 1512 1516 1520 1523 1526 1529 1532 1535 1538 1541 1543 1546 1549 1551 1554 1556 1558 1560 1562 1564 1565 1566 1567 1568 1569 1569 1570 1570 1570 1571 1571 1571 1570 1570 1570 1570 1569
1487 1491 1495 1499 1504 1508 1511 1515 1518 1522 1525 1528 1531 1534 1536 1539 1542 1545 1547 1550 1552 1554 1556 1559 1560 1562 1563 1564 1566 1566 1567 1567 1568 1568 1568 1568 1568 1568 1568 1568 1568 1568 1567
1486 1490 1494 1497 1501 1505 1509 1513 1517 1520 1523 1526 1529 1532 1535 1538 1540 1543 1545 1548 1550 1552 1554 1556 1558 1560 1561 1562 1563 1564 1565 1565 1565 1565 1565 1566 1566 1566 1566 1566 1565 1565 1565
1483 1488 1492 1495 1499 1503 1507 1511 1515 1518 1521 1524 1527 1530 1532 1535 1538 1541 1543 1546 1548 1550 1552 1554 1555 1557 1559 1560 1561 1562 1562 1562 1562 1562 1562 1562 1562 1562 1562 1562 1562 1562 1562
1482 1486 1490 1493 1497 1501 1505 1509 1512 1515 1518 1521 1524 1527 1530 1533 1535 1538 1541 1543 1545 1547 1549 1551 1553 1554 1556 1557 1558 1558 1558 1558 1558 1558 1558 1559 1559 1559 1559 1559 1559 1558 1558
1480 1484 1488 1491 1494 1498 1501 1504 1507 1510 1514 1518 1521 1524 1527 1530 1532 1535 1537 1540 1542 1544 1546 1548 1550 1551 1553 1554 1555 1554 1555 1555 1555 1555 1555 1555 1555 1555 1555 1555 1555 1555 1554
1477 1480 1484 1488 1491 1495 1498 1501 1505 1508 1511 1515 1518 1521 1524 1526 1529 1532 1534 1536 1538 1540 1542 1544 1546 1547 1549 1550 1551 1551 1551 1551 1550 1551 1551 1551 1551 1551 1551 1551 1551 1551 1551
1476 1478 1481 1484 1488 1491 1494 1498 1501 1505 1508 1511 1514 1516 1519 1522 1525 1528 1530 1532 1534 1537 1538 1540 1542 1544 1545 1547 1548 1549 1549 1547 1547 1547 1547 1547 1547 1548 1548 1547 1547 1547 1546
1475 1477 1479 1482 1485 1488 1490 1494 1496 1499 1502 1505 1509 1512 1515 1518 1521 1524 1526 1528 1530 1532 1534 1536 1538 1540 1542 1542 1543 1544 1546 1545 1545 1543 1543 1544 1544 1543 1543 1543 1543 1542 1541
1472 1474 1476 1479 1481 1484 1486 1489 1492 1495 1498 1501 1505 1508 1511 1513 1516 1519 1521 1523 1526 1528 1530 1532 1534 1536 1537 1538 1539 1540 1540 1541 1541 1541 1539 1539 1539 1539 1539 1538 1538 1537 1536
1471 1472 1474 1476 1478 1481 1483 1485 1488 1491 1494 1497 1500 1503 1506 1509 1511 1514 1517 1519 1521 1523 1525 1528 1530 1531 1532 1533 1534 1535 1535 1536 1536 1536 1535 1534 1533 1533 1533 1533 1532 1532 1531